FW8799 Weather Reports


time (UTC)temp
C
wind
direction
speed
KPH
gust
KPH
rain 1hr
cm
rain 24hr
cm
rain mn
cm
humidity
%
barometer
mb
20260502140109 6 159 0.0 3.2 0.00 0.00 0.00 58 1021.7
20260502130121 1 203 1.6 3.2 0.00 0.00 0.00 71 1021.1
20260502123128 0 180 3.2 3.2 0.00 0.00 0.00 68 1021.0
20260502121612 1 0 0.0 3.2 0.00 0.00 0.00 66 1021.0
20260502120126 2 186 1.6 4.8 0.00 0.00 0.00 64 1020.9
20260502114558 2 141 0.0 1.6 0.00 0.00 0.00 62 1020.8
20260502113100 2 0 0.0 3.2 0.00 0.00 0.00 61 1020.9
20260502111558 2 0 0.0 1.6 0.00 0.00 0.00 61 1020.7
20260502110104 2 113 0.0 3.2 0.00 0.00 0.00 62 1020.8
20260502104557 2 112 0.0 4.8 0.00 0.00 0.00 62 1020.7
20260502103058 3 187 1.6 3.2 0.00 0.00 0.00 61 1020.6
20260502101605 3 204 1.6 3.2 0.00 0.00 0.00 58 1020.6
20260502090104 4 320 1.6 3.2 0.00 0.00 0.00 52 1020.7
20260502080104 7 138 3.2 6.4 0.00 0.00 0.00 45 1020.7
20260502064558 8 104 1.6 4.8 0.00 0.00 0.00 43 1020.8
20260502063103 8 148 3.2 4.8 0.00 0.00 0.00 41 1020.6
20260502061559 8 148 4.8 6.4 0.00 0.00 0.00 42 1020.4
20260502060119 8 146 4.8 9.7 0.00 0.00 0.00 42 1020.3
20260502054557 9 188 3.2 8.0 0.00 0.00 0.00 40 1020.0
20260502053059 8 191 4.8 6.4 0.00 0.00 0.00 40 1020.0
20260502051602 10 174 1.6 6.4 0.00 0.00 0.00 38 1020.0
20260502050057 9 218 3.2 14.5 0.00 0.00 0.00 41 1020.1
20260502044556 10 105 3.2 6.4 0.00 0.00 0.00 40 1019.8
20260502043110 11 127 4.8 6.4 0.00 0.00 0.00 38 1019.7
20260502041559 12 127 4.8 8.0 0.00 0.00 0.00 35 1019.4
20260502040106 12 127 6.4 9.7 0.00 0.00 0.00 34 1019.2
20260502034605 13 137 6.4 9.7 0.00 0.00 0.00 33 1019.0
20260502033106 13 136 8.0 12.9 0.00 0.00 0.00 32 1018.7
20260502031600 15 153 9.7 14.5 0.00 0.00 0.00 30 1018.4
20260502030101 15 158 9.7 16.1 0.00 0.00 0.00 29 1018.4
20260502024611 15 159 9.7 14.5 0.00 0.00 0.00 29 1018.3
20260502023059 16 150 12.9 17.7 0.00 0.00 0.00 28 1018.2
20260502021605 17 166 11.3 17.7 0.00 0.00 0.00 26 1018.0
20260502020058 18 170 11.3 19.3 0.00 0.00 0.00 25 1017.9
20260502014558 18 147 12.9 27.4 0.00 0.00 0.00 23 1017.8
20260502013059 18 134 12.9 24.1 0.00 0.00 0.00 23 1017.8
20260502011558 19 146 8.0 12.9 0.00 0.00 0.00 22 1017.8
20260502010106 19 165 12.9 24.1 0.00 0.00 0.00 19 1017.8
20260502004608 19 193 9.7 17.7 0.00 0.00 0.00 20 1017.8
20260502003106 19 146 9.7 16.1 0.00 0.00 0.00 20 1017.8
20260502001601 19 177 8.0 19.3 0.00 0.00 0.00 19 1017.9
20260502000111 19 169 12.9 27.4 0.00 0.00 0.00 19 1017.9
20260501234600 20 165 8.0 16.1 0.00 0.00 0.00 18 1017.8
20260501233102 20 146 4.8 17.7 0.00 0.00 0.00 18 1017.8
20260501231558 19 141 8.0 25.7 0.00 0.00 0.00 19 1017.9
20260501230059 20 157 14.5 32.2 0.00 0.00 0.00 18 1017.9
20260501224602 19 189 14.5 24.1 0.00 0.00 0.00 18 1018.1
20260501223106 19 144 4.8 27.4 0.00 0.00 0.00 19 1018.1
20260501221610 19 106 6.4 17.7 0.00 0.00 0.00 21 1018.4
20260501220105 18 200 17.7 30.6 0.00 0.00 0.00 21 1018.7
20260501214601 18 110 12.9 29.0 0.00 0.00 0.00 20 1018.8
20260501213100 18 141 11.3 20.9 0.00 0.00 0.00 20 1018.9
20260501211619 18 173 11.3 30.6 0.00 0.00 0.00 21 1019.1
20260501210109 18 194 4.8 29.0 0.00 0.00 0.00 23 1019.2
20260501204604 18 199 12.9 24.1 0.00 0.00 0.00 23 1019.3
20260501203106 18 155 4.8 29.0 0.00 0.00 0.00 23 1019.2
20260501201602 18 203 17.7 25.7 0.00 0.00 0.00 23 1019.3
20260501200059 17 221 11.3 33.8 0.00 0.00 0.00 24 1019.4
20260501194601 17 217 8.0 20.9 0.00 0.00 0.00 24 1019.5
20260501193110 17 193 9.7 20.9 0.00 0.00 0.00 25 1019.8
20260501191601 17 142 9.7 27.4 0.00 0.00 0.00 25 1019.8
20260501190133 16 133 20.9 33.8 0.00 0.00 0.00 27 1020.0
20260501184612 17 165 9.7 24.1 0.00 0.00 0.00 27 1020.2
20260501183100 16 145 12.9 32.2 0.00 0.00 0.00 27 1020.2
20260501181601 16 155 12.9 30.6 0.00 0.00 0.00 26 1020.2
20260501180115 16 162 8.0 22.5 0.00 0.00 0.00 28 1020.3
20260501174559 15 189 12.9 24.1 0.00 0.00 0.00 28 1020.4
20260501173100 15 165 16.1 24.1 0.00 0.00 0.00 30 1020.3
20260501171559 15 129 9.7 22.5 0.00 0.00 0.00 33 1020.4
20260501170101 14 171 11.3 19.3 0.00 0.00 0.00 34 1020.5
20260501164604 14 151 11.3 17.7 0.00 0.00 0.00 36 1020.5
20260501163100 13 163 9.7 19.3 0.00 0.00 0.00 38 1020.5
20260501161601 13 213 9.7 19.3 0.00 0.00 0.00 38 1020.4
20260501160107 12 193 6.4 16.1 0.00 0.00 0.00 40 1020.3
20260501154608 12 182 6.4 12.9 0.00 0.00 0.00 43 1020.3
20260501153059 11 206 6.4 11.3 0.00 0.00 0.00 43 1020.3
20260501151607 10 152 6.4 12.9 0.00 0.00 0.00 45 1020.3
20260501144558 8 174 6.4 9.7 0.00 0.00 0.00 48 1020.1
20260501143101 8 149 3.2 6.4 0.00 0.00 0.00 50 1020.0